Date,TemperatureHighF,TemperatureAvgF,TemperatureLowF,DewpointHighF,DewpointAvgF,DewpointLowF,HumidityHigh,HumidityAvg,HumidityLow,PressureMaxIn,PressureMinIn,WindSpeedMaxMPH,WindSpeedAvgMPH,GustSpeedMaxMPH,PrecipitationSumIn
2013-1-1,42,17,-1,18,4,-7,82,61,21,0.00,40.00,4,2,13,0.00
2013-1-2,52,19,-8,21,7,-15,90,64,23,0.00,40.00,3,1,6,0.00
2013-1-3,52,22,-5,25,12,-12,90,69,28,0.00,40.00,2,1,5,0.00
2013-1-4,51,27,2,32,18,-4,93,74,33,0.00,40.00,2,1,6,0.00
2013-1-5,50,34,6,28,20,1,86,60,36,0.00,40.00,6,3,13,0.00
2013-1-6,37,29,22,27,22,16,92,77,54,0.00,40.00,4,2,11,0.19
2013-1-7,47,30,7,33,22,2,93,73,42,0.00,40.00,4,1,11,0.02
2013-1-8,56,32,13,34,24,9,93,74,41,0.00,40.00,4,1,6,0.00
2013-1-9,52,37,16,29,22,13,92,59,27,0.00,40.00,10,6,22,0.00
2013-1-10,31,19,4,18,10,-2,88,70,35,0.00,40.00,5,2,13,0.28
2013-1-11,30,18,2,12,6,-7,86,62,33,0.00,40.00,5,2,12,0.03
2013-1-12,33,13,-17,10,-4,-25,77,52,22,0.00,40.00,4,2,9,0.11
2013-1-13,34,10,-19,9,-9,-28,73,47,20,0.00,40.00,5,2,13,0.02
2013-1-14,37,16,-16,8,-2,-25,84,48,22,0.00,40.00,5,2,16,0.00
2013-1-15,53,31,1,24,13,-5,83,54,23,0.00,40.00,4,2,11,0.00
2013-1-16,55,24,3,22,8,-3,86,61,15,0.00,40.00,3,1,8,0.00
2013-1-17,53,21,-3,21,4,-9,85,60,13,0.00,40.00,3,0,6,0.00
2013-1-18,53,22,-4,19,6,-10,85,59,12,0.00,40.00,3,1,6,0.00
2013-1-19,55,25,-5,20,4,-12,85,52,12,0.00,40.00,2,1,5,0.00
2013-1-20,52,25,-4,20,4,-10,83,51,14,0.00,40.00,3,1,8,0.00
2013-1-28,30,27,25,22,18,12,85,70,46,0.00,40.00,3,2,13,0.03
2013-1-29,48,36,26,27,24,20,88,63,43,0.00,40.00,6,3,18,0.01
2013-1-30,56,39,17,29,21,14,92,57,21,0.00,40.00,3,1,9,0.01
2013-1-31,58,39,12,26,19,8,84,51,19,0.00,40.00,5,2,10,0.00
2013-2-1,56,34,11,23,15,5,86,55,13,0.00,40.00,4,1,8,0.00
2013-2-2,49,33,16,26,21,13,91,66,29,0.00,40.00,2,0,5,0.00
2013-2-3,53,36,15,29,19,11,90,59,22,0.00,40.00,4,2,10,0.00
2013-2-4,58,41,13,29,22,9,89,54,21,0.00,40.00,5,2,9,0.00
2013-2-5,51,38,23,24,18,9,89,48,19,0.00,40.00,11,6,26,0.00
2013-2-6,52,32,10,23,10,-15,83,45,6,0.00,40.00,5,3,11,0.00
2013-2-7,35,29,21,25,10,-14,84,50,11,0.00,40.00,9,6,24,0.00
2013-2-8,31,22,4,20,12,-1,85,65,43,0.00,40.00,5,2,11,0.12
2013-2-9,41,23,1,16,8,-5,83,55,24,0.00,40.00,4,2,11,0.01
2013-2-10,38,26,2,17,9,-4,84,52,32,0.00,40.00,7,4,16,0.01
2013-2-11,43,30,10,11,8,4,81,41,23,0.00,40.00,6,4,21,0.00
2013-2-12,52,32,6,21,12,1,84,52,19,0.00,40.00,4,2,9,0.00
2013-2-13,52,37,10,23,19,6,87,54,29,0.00,40.00,6,3,15,0.00
2013-2-14,52,38,13,27,22,9,90,58,32,0.00,40.00,5,2,12,0.00
2013-2-15,58,38,13,27,20,9,90,56,19,0.00,40.00,4,1,8,0.01
2013-2-16,57,36,12,27,17,8,89,53,15,0.00,40.00,6,2,13,0.01
2013-2-17,55,38,18,22,16,7,86,47,14,0.00,40.00,4,2,10,0.00
2013-2-18,51,37,15,22,16,10,88,48,19,0.00,40.00,8,4,23,0.00
2013-2-19,33,25,14,25,18,10,87,74,42,0.00,40.00,8,4,25,0.01
2013-2-20,40,27,10,20,13,2,88,61,21,0.00,40.00,5,2,13,0.14
2013-2-21,42,28,16,19,11,2,88,53,21,0.00,40.00,6,3,14,0.12
2013-2-22,50,38,8,25,17,1,83,46,13,0.00,40.00,7,4,19,0.01
2013-2-23,40,32,20,26,14,4,73,51,23,0.00,40.00,12,6,30,0.01
2013-2-24,46,29,10,10,4,-3,80,42,13,0.00,40.00,5,3,12,0.00
2013-2-25,49,36,11,22,12,-1,83,45,12,0.00,40.00,8,5,22,0.00
2013-2-26,46,30,10,13,5,-2,86,44,13,0.00,40.00,5,2,11,0.00
2013-2-27,55,37,8,18,11,-1,82,41,11,0.00,40.00,5,3,12,0.00
2013-2-28,58,39,24,28,20,9,92,50,28,0.00,40.00,5,2,11,0.00
2013-3-1,62,44,20,32,26,17,92,56,26,0.00,40.00,4,1,9,0.00
2013-3-2,59,46,24,29,21,16,92,43,20,0.00,40.00,8,4,24,0.00
2013-3-3,41,37,29,35,31,27,95,82,59,0.00,40.00,7,3,22,0.30
2013-3-4,56,37,23,34,28,21,95,72,31,0.00,40.00,6,3,14,0.02
2013-3-5,50,41,33,30,25,16,82,54,37,0.00,40.00,10,7,30,0.00
2013-3-6,33,28,23,28,22,18,92,80,69,0.00,40.00,11,6,29,0.03
2013-3-7,40,28,22,28,23,18,92,84,51,0.00,40.00,3,1,6,0.25
2013-3-8,41,30,12,27,23,8,93,77,49,0.00,40.00,3,1,9,0.35
2013-3-9,48,34,14,24,14,2,93,56,16,0.00,40.00,7,2,14,0.03
2013-3-10,58,42,13,20,12,4,84,39,11,0.00,40.00,4,2,9,0.03
2013-3-11,62,43,14,26,18,10,89,48,16,0.00,40.00,5,1,10,0.00
2013-3-12,67,44,18,29,21,9,92,52,11,0.00,40.00,4,2,10,0.00
2013-3-13,73,47,24,34,26,8,94,53,9,0.00,40.00,7,3,16,0.00
2013-3-14,67,50,27,35,26,13,91,47,17,0.00,40.00,6,3,19,0.00
2013-3-15,64,44,23,33,25,4,93,54,9,0.00,40.00,6,2,14,0.00
2013-3-16,60,44,21,27,21,8,90,47,14,0.00,40.00,6,3,17,0.00
2013-3-17,58,44,27,28,16,-1,83,42,9,0.00,40.00,7,3,13,0.00
2013-3-18,57,44,19,31,20,7,90,45,15,0.00,40.00,7,4,19,0.00
2013-3-19,55,42,35,35,28,18,89,60,37,0.00,40.00,7,4,20,0.16
2013-3-20,40,37,34,35,33,30,91,86,77,0.00,40.00,9,6,27,1.45
2013-3-21,52,40,27,30,24,9,93,57,18,0.00,40.00,7,4,20,0.15
2013-3-22,50,35,17,25,10,-7,93,51,9,0.00,40.00,6,2,12,0.00
2013-3-23,54,39,13,22,12,1,86,41,11,0.00,40.00,5,3,15,0.00
2013-3-24,59,44,22,27,22,16,90,47,23,0.00,40.00,4,2,13,0.00
2013-3-25,58,43,21,27,16,4,77,38,12,0.00,40.00,6,3,16,0.00
2013-3-26,48,42,37,36,27,14,79,57,36,0.00,40.00,11,5,30,0.04
2013-3-27,52,43,28,34,30,25,89,63,41,0.00,40.00,6,4,15,0.01
2013-3-28,53,43,30,37,33,28,94,72,43,0.00,40.00,8,4,18,0.08
2013-3-29,56,40,25,41,32,23,95,78,38,0.00,40.00,6,1,10,0.09
2013-3-30,60,46,27,38,33,25,94,65,35,0.00,40.00,8,2,22,0.00
2013-3-31,47,39,32,36,33,30,94,81,52,0.00,40.00,8,4,21,0.32
2013-4-1,48,38,28,35,31,26,94,78,54,0.00,40.00,6,3,14,0.19
2013-4-2,57,39,23,38,29,21,93,72,37,0.00,40.00,5,2,11,0.19
2013-4-3,65,48,24,39,32,22,94,58,27,0.00,40.00,4,2,13,0.00
2013-4-4,48,44,38,38,32,19,90,66,33,0.00,40.00,7,5,23,0.57
2013-4-5,53,42,35,35,30,23,84,64,43,0.00,40.00,6,5,18,0.35
2013-4-6,53,42,36,33,26,17,74,54,41,0.00,40.00,7,5,16,0.00
2013-4-7,51,42,32,32,30,25,83,64,44,0.00,40.00,12,8,28,0.04
2013-4-8,40,32,28,27,21,15,93,67,38,0.00,40.00,7,4,26,0.30
2013-4-9,48,36,26,17,13,8,62,42,19,0.00,40.00,8,6,25,0.01
2013-4-10,64,50,26,35,27,17,81,42,26,0.00,40.00,6,4,15,0.00
2013-4-11,58,49,32,38,34,11,88,59,16,0.00,40.00,6,3,15,0.00
2013-4-12,64,50,23,38,31,21,93,52,24,0.00,40.00,6,3,16,0.00
2013-4-13,60,50,38,36,31,21,79,49,28,0.00,40.00,8,5,33,0.00
2013-4-14,55,45,37,33,27,22,72,52,28,0.00,40.00,9,6,27,0.00
2013-4-15,43,34,25,28,23,17,90,65,36,0.00,40.00,9,5,28,0.00
2013-4-16,39,29,20,24,20,15,90,70,39,0.00,40.00,5,2,14,0.44
2013-4-17,43,31,13,20,13,6,88,51,22,0.00,40.00,7,4,16,0.01
2013-4-18,57,44,18,27,17,8,87,39,20,0.00,40.00,5,3,12,0.01
2013-4-19,60,48,23,30,26,21,91,48,23,0.00,40.00,7,3,17,0.00
2013-4-20,66,51,25,33,27,2,92,45,8,0.00,40.00,6,3,12,0.00
2013-4-21,70,56,26,36,29,23,93,42,17,0.00,40.00,5,3,11,0.00
2013-4-22,67,56,28,36,27,17,94,40,15,0.00,40.00,6,3,14,0.00
2013-4-23,65,50,22,30,21,8,88,39,19,0.00,40.00,6,3,12,0.00
2013-4-24,61,50,24,29,12,2,93,31,12,0.00,40.00,7,4,17,0.00
2013-4-25,66,51,23,31,23,11,88,39,17,0.00,40.00,6,3,15,0.00
2013-4-26,70,55,26,37,26,15,93,42,12,0.00,40.00,6,3,13,0.00
2013-4-27,73,58,29,38,32,25,95,44,17,0.00,40.00,6,3,15,0.00
2013-4-28,74,59,25,41,28,17,93,38,13,0.00,40.00,5,3,13,0.00
2013-4-29,72,59,31,41,34,30,95,46,21,0.00,40.00,6,3,16,0.00
2013-4-30,66,54,37,40,31,9,91,44,19,0.00,40.00,6,3,15,0.00
2013-5-1,64,52,24,17,4,-4,64,18,8,0.00,40.00,6,4,14,0.00
2013-5-2,73,56,22,36,20,10,77,30,11,0.00,40.00,5,3,11,0.00
2013-5-3,72,57,29,39,27,19,94,43,14,0.00,40.00,6,3,15,0.00
2013-5-4,64,52,27,31,25,20,89,40,21,0.00,40.00,6,3,20,0.00
2013-5-5,60,48,30,39,34,28,94,64,38,0.00,40.00,6,3,16,0.05
2013-5-6,44,38,33,40,36,31,95,90,84,0.00,40.00,5,2,11,1.39
2013-5-7,45,40,36,39,37,35,96,90,79,0.00,40.00,5,2,10,0.34
2013-5-8,59,46,38,42,39,36,95,78,42,0.00,40.00,5,2,11,0.21
2013-5-9,66,50,32,46,39,31,95,70,33,0.00,40.00,5,2,11,0.00
2013-5-10,72,61,33,45,35,-100,95,46,23,0.00,40.00,5,3,12,0.00
2013-5-11,76,63,36,46,38,29,96,45,18,0.00,40.00,6,3,13,0.00
2013-5-12,76,65,35,45,35,30,95,38,20,0.00,40.00,6,3,15,0.00
2013-5-13,75,64,35,42,31,27,95,36,19,0.00,40.00,8,4,23,0.00
2013-5-14,67,58,36,43,38,32,92,49,31,0.00,40.00,6,3,17,0.00
2013-5-15,69,56,32,39,25,14,94,39,14,0.00,40.00,7,4,22,0.00
2013-5-16,46,40,39,41,18,-100,92,76,52,0.00,40.00,7,4,17,0.60
2013-5-17,57,46,35,37,28,-100,90,63,39,0.00,40.00,7,5,17,0.14
2013-5-18,62,48,25,34,27,15,92,50,18,0.00,40.00,6,3,16,0.00
2013-5-19,65,54,28,36,28,15,94,44,14,0.00,40.00,6,3,13,0.00
2013-5-20,71,56,26,36,29,23,91,40,20,0.00,40.00,5,3,12,0.00
2013-5-21,63,55,38,33,24,9,78,32,18,0.00,40.00,12,8,35,0.00
2013-5-22,54,46,30,23,17,11,69,33,18,0.00,40.00,10,6,30,0.00
2013-5-23,54,42,23,31,19,7,82,44,18,0.00,40.00,6,4,20,0.00
2013-5-24,65,49,22,29,23,-6,92,44,7,0.00,40.00,7,4,18,0.00
2013-5-25,63,50,29,33,24,9,86,40,17,0.00,40.00,7,4,18,0.00
2013-5-26,61,49,31,36,30,25,86,49,30,0.00,40.00,7,4,17,0.00
2013-5-27,58,46,27,42,33,19,90,67,24,0.00,40.00,7,4,21,0.28
2013-5-28,60,50,42,42,39,34,91,69,38,0.00,40.00,6,4,17,0.67
2013-5-29,62,51,41,41,37,34,91,62,36,0.00,40.00,8,6,23,0.13
2013-5-30,67,52,28,39,28,6,93,49,10,0.00,40.00,7,4,19,0.01
2013-5-31,75,57,28,38,29,17,94,44,11,0.00,40.00,5,2,15,0.00
2013-6-1,79,65,30,44,33,23,95,38,16,0.00,40.00,6,3,14,0.00
2013-6-2,78,65,36,45,37,29,95,43,18,0.00,40.00,6,3,16,0.00
2013-6-3,79,66,37,49,37,31,96,43,18,0.00,40.00,6,2,12,0.00
2013-6-4,83,65,39,47,38,21,96,47,10,0.00,40.00,6,2,13,0.00
2013-6-5,84,67,39,49,38,21,96,46,10,0.00,40.00,5,2,12,0.00
2013-6-6,85,67,42,49,42,25,96,49,11,0.00,40.00,11,2,20,0.00
2013-6-7,89,70,41,48,38,25,96,43,10,0.00,40.00,5,2,12,0.00
2013-6-8,89,71,40,58,43,35,94,44,15,0.00,40.00,6,2,12,0.00
2013-6-9,84,66,44,54,48,37,96,60,19,0.00,40.00,7,2,15,0.02
2013-6-10,70,59,50,52,42,33,95,57,27,0.00,40.00,9,4,19,0.15
2013-6-11,72,61,52,36,33,27,52,37,25,0.00,40.00,8,6,26,0.01
2013-6-12,73,62,50,36,31,18,44,31,21,0.00,40.00,9,6,31,0.00
2013-6-13,67,59,39,28,10,-14,64,18,6,0.00,40.00,8,5,20,0.00
2013-6-14,71,64,31,40,28,25,92,28,20,0.00,40.00,6,4,10,0.00
2013-6-15,73,64,34,37,28,18,95,29,13,0.00,40.00,7,4,17,0.00
2013-6-16,74,65,45,34,28,14,64,27,12,0.00,40.00,6,4,15,0.00
2013-6-17,73,61,41,36,30,21,74,34,16,0.00,40.00,8,5,22,0.00
2013-6-18,66,56,43,31,25,18,53,31,21,0.00,40.00,10,7,31,0.00
2013-6-19,61,50,39,28,16,7,62,28,13,0.00,40.00,8,6,18,0.00
2013-6-20,64,52,28,28,23,20,87,39,18,0.00,40.00,6,3,18,0.00
2013-6-22,75,66,46,37,33,30,68,30,22,0.00,40.00,7,4,18,0.00
2013-6-23,66,58,33,40,36,29,93,45,28,0.00,40.00,9,5,19,0.00
2013-6-24,51,49,47,47,42,34,92,77,54,0.00,40.00,8,5,22,0.81
2013-6-25,57,54,50,51,48,45,88,81,72,0.00,40.00,9,6,21,0.56
2013-6-30,89,80,62,55,53,50,77,41,29,0.00,40.00,6,4,17,0.00
2013-7-1,93,77,59,56,50,41,88,44,17,0.00,40.00,12,4,25,0.00
2013-7-2,89,78,65,59,53,46,73,44,27,0.00,40.00,6,3,14,0.00
2013-7-3,88,76,59,58,54,52,88,49,30,0.00,40.00,6,3,11,0.00
2013-7-4,88,77,54,57,54,51,98,48,29,0.00,40.00,6,4,14,0.00
2013-7-5,85,75,57,51,35,26,81,28,13,0.00,40.00,8,5,24,0.00
2013-7-6,83,71,56,44,37,28,59,31,19,0.00,40.00,7,5,25,0.00
2013-7-7,83,71,49,43,36,31,66,29,17,0.00,40.00,8,5,19,0.00
2013-7-9,81,75,58,43,34,29,54,23,18,0.00,40.00,7,4,17,0.00
2013-7-10,83,74,55,43,33,-100,65,26,16,0.00,40.00,7,4,18,0.00
2013-7-11,79,68,53,45,37,32,75,33,21,0.00,40.00,9,5,22,0.00
2013-7-12,80,68,49,40,37,33,63,35,18,0.00,40.00,7,4,16,0.00
2013-7-13,80,70,51,40,34,24,57,30,15,0.00,40.00,6,4,14,0.00
2013-7-14,84,72,55,45,39,30,57,34,15,0.00,40.00,7,4,18,0.00
2013-7-15,85,76,58,45,43,41,63,32,23,0.00,40.00,6,4,14,0.00
2013-7-19,91,81,57,49,44,39,65,29,17,0.00,40.00,6,3,12,0.00
2013-7-20,95,80,59,55,42,-100,70,32,12,0.00,40.00,6,3,15,0.00
2013-7-21,95,86,62,52,46,36,70,29,13,0.00,40.00,5,4,15,0.00
2013-7-22,90,75,50,56,46,41,89,38,21,0.00,40.00,8,4,20,0.14
2013-7-23,77,68,53,57,52,47,100,58,41,0.00,40.00,5,3,12,0.14
2013-7-24,84,75,56,55,49,43,98,44,30,0.00,40.00,6,4,14,0.00
2013-7-25,85,67,55,59,55,51,100,72,32,0.00,40.00,5,2,13,0.53
2013-7-31,78,69,51,46,40,37,80,37,24,0.00,40.00,6,4,18,0.00
2013-8-1,74,66,49,31,24,20,43,22,14,0.00,40.00,8,5,20,0.00
2013-8-2,78,68,41,35,28,18,62,25,11,0.00,40.00,6,4,14,0.00
2013-8-3,80,69,46,42,37,31,75,33,18,0.00,40.00,7,4,15,0.00
2013-8-4,82,74,53,39,36,30,58,27,17,0.00,40.00,7,4,18,0.00
2013-8-5,83,72,45,40,35,26,77,29,13,0.00,40.00,5,4,17,0.00
2013-8-6,84,72,60,40,35,24,43,28,12,0.00,40.00,7,5,18,0.00
2013-8-7,75,64,49,44,39,34,75,42,22,0.00,40.00,6,4,18,0.00